Location: Dal�� Lhota
(48.7500°N, 14.0167°E)
Time: 03:41:57
(UTC+00:00)

Transit 2A - Pass Details

Date: 05 August 2021
Orbit: 594 x 964 km, 66.7° (Epoch: 21 September)

Event Time Altitude Azimuth Distance (km) Brightness Sun altitude
Rises 06:24:06 0° 262° (W) 2,896 8.4 24.8°
Reaches altitude 10° 06:26:49 10° 279° (W) 2,035 7.7 25.2°
Maximum altitude 06:30:15 20° 328° (NNW) 1,523 7.4 25.8°
Drops below altitude 10° 06:33:56 10° 17° (NNE) 2,188 8.6 26.4°
Sets 06:36:59 0° 33° (NNE) 3,187 9.6 26.9°
